IGO543 VOMM-VOMD

Flight info

Callsign IGO543
Flight time 0h 39m
Altitude 30000
Route MMV R457 MDI
Aircraft A20N/M-SDE2E3FGHIRWXY/LB1

Departure

Time 2026-04-29 06:40
Airport Chennai International Airport (VOMM)

Arrival

Time 2026-04-29 07:19
Airport Madurai Airport (VOMD)
Time Latitude Longitude Altitude Speed Heading
2026-04-29 06:23 12.98418 80.16493 55 ft 0 kts 160°
2026-04-29 06:26 12.98425 80.16490 55 ft 2 kts 157°
2026-04-29 06:26 12.98438 80.16486 50 ft 2 kts 159°
2026-04-29 06:26 12.98441 80.16484 51 ft 0 kts 159°
2026-04-29 06:27 12.98450 80.16481 50 ft 0 kts 159°
2026-04-29 06:27 12.98456 80.16479 55 ft 1 kts 159°
2026-04-29 06:27 12.98461 80.16476 49 ft 1 kts 158°
2026-04-29 06:28 12.98468 80.16474 49 ft 1 kts 145°
2026-04-29 06:28 12.98474 80.16469 52 ft 1 kts 128°
2026-04-29 06:28 12.98479 80.16462 51 ft 1 kts 105°
2026-04-29 06:28 12.98480 80.16455 52 ft 0 kts 71°
2026-04-29 06:29 12.98481 80.16460 51 ft 2 kts 71°
2026-04-29 06:29 12.98488 80.16481 49 ft 5 kts 73°
2026-04-29 06:29 12.98495 80.16510 53 ft 0 kts 76°
2026-04-29 06:32 12.98496 80.16511 53 ft 1 kts 71°
2026-04-29 06:32 12.98509 80.16545 53 ft 9 kts 69°
2026-04-29 06:32 12.98538 80.16623 52 ft 14 kts 70°
2026-04-29 06:32 12.98574 80.16722 55 ft 15 kts 69°
2026-04-29 06:33 12.98653 80.16757 53 ft 15 kts 339°
2026-04-29 06:33 12.98755 80.16732 50 ft 12 kts 23°
2026-04-29 06:33 12.98772 80.16772 54 ft 7 kts 80°
2026-04-29 06:33 12.98802 80.16856 55 ft 18 kts 69°
2026-04-29 06:34 12.98859 80.17008 55 ft 28 kts 69°
2026-04-29 06:34 12.98929 80.17195 51 ft 26 kts 65°
2026-04-29 06:34 12.99010 80.17376 53 ft 29 kts 69°
2026-04-29 06:34 12.99085 80.17575 54 ft 31 kts 70°
2026-04-29 06:35 12.99144 80.17695 53 ft 9 kts 20°
2026-04-29 06:35 12.99204 80.17721 56 ft 10 kts 52°
2026-04-29 06:35 12.99232 80.17795 55 ft 13 kts 68°
2026-04-29 06:35 12.99270 80.17891 50 ft 16 kts 69°
2026-04-29 06:36 12.99316 80.18010 53 ft 19 kts 68°
2026-04-29 06:36 12.99366 80.18145 52 ft 20 kts 82°
2026-04-29 06:36 12.99394 80.18287 51 ft 23 kts 49°
2026-04-29 06:36 12.99428 80.18320 49 ft 0 kts 41°
2026-04-29 06:37 12.99429 80.18320 49 ft 1 kts 41°
2026-04-29 06:37 12.99456 80.18345 54 ft 11 kts 41°
2026-04-29 06:37 12.99484 80.18371 50 ft 10 kts 43°
2026-04-29 06:38 12.99566 80.18410 50 ft 10 kts 343°
2026-04-29 06:38 12.99575 80.18384 56 ft 5 kts 259°
2026-04-29 06:38 12.99570 80.18373 56 ft 0 kts 249°
2026-04-29 06:38 12.99565 80.18360 50 ft 17 kts 249°
2026-04-29 06:39 12.99399 80.17917 54 ft 112 kts 249°
2026-04-29 06:39 12.99031 80.16939 50 ft 179 kts 249°
2026-04-29 06:39 12.98531 80.15593 238 ft 221 kts 249°
2026-04-29 06:39 12.97950 80.13971 592 ft 260 kts 249°
2026-04-29 06:40 12.97216 80.12268 1745 ft 258 kts 236°
2026-04-29 06:40 12.95923 80.10952 2733 ft 273 kts 214°
2026-04-29 06:40 12.94281 80.09883 3722 ft 281 kts 211°
2026-04-29 06:40 12.92585 80.08856 4837 ft 286 kts 210°
2026-04-29 06:41 12.90886 80.07830 5902 ft 290 kts 211°
2026-04-29 06:41 12.89133 80.06753 6969 ft 295 kts 211°
2026-04-29 06:41 12.88068 80.06089 7601 ft 298 kts 211°
2026-04-29 06:41 12.87211 80.05553 8100 ft 300 kts 211°
2026-04-29 06:42 12.85412 80.04420 9127 ft 305 kts 212°
2026-04-29 06:42 12.83791 80.03397 10018 ft 309 kts 212°
2026-04-29 06:42 12.81943 80.02229 10985 ft 314 kts 212°
2026-04-29 06:42 12.80112 80.01072 11910 ft 319 kts 212°
2026-04-29 06:43 12.78208 79.99870 12818 ft 323 kts 212°
2026-04-29 06:43 12.76280 79.98653 13708 ft 328 kts 212°
2026-04-29 06:43 12.74324 79.97419 14577 ft 332 kts 212°
2026-04-29 06:43 12.72341 79.96168 15417 ft 337 kts 212°
2026-04-29 06:44 12.70335 79.94903 16228 ft 341 kts 212°
2026-04-29 06:44 12.68306 79.93624 17020 ft 345 kts 212°
2026-04-29 06:44 12.66247 79.92326 17788 ft 349 kts 212°
2026-04-29 06:44 12.64165 79.91014 18532 ft 353 kts 212°
2026-04-29 06:45 12.62059 79.89687 19259 ft 358 kts 212°
2026-04-29 06:45 12.59928 79.88345 19965 ft 362 kts 212°
2026-04-29 06:45 12.57795 79.87002 20639 ft 366 kts 212°
2026-04-29 06:45 12.55617 79.85630 21311 ft 369 kts 212°
2026-04-29 06:46 12.53414 79.84244 21958 ft 373 kts 212°
2026-04-29 06:46 12.51193 79.82846 22591 ft 377 kts 212°
2026-04-29 06:46 12.48946 79.81432 23208 ft 381 kts 212°
2026-04-29 06:46 12.46680 79.80007 23813 ft 384 kts 212°
2026-04-29 06:47 12.44389 79.78565 24392 ft 388 kts 212°
2026-04-29 06:47 12.42854 79.77600 24781 ft 390 kts 212°
2026-04-29 06:47 12.42308 79.77257 24901 ft 391 kts 212°
2026-04-29 06:47 12.41331 79.76642 25139 ft 393 kts 212°
2026-04-29 06:48 12.38993 79.75172 25673 ft 396 kts 212°
2026-04-29 06:48 12.36636 79.73691 26195 ft 399 kts 212°
2026-04-29 06:48 12.34251 79.72192 26700 ft 403 kts 212°
2026-04-29 06:48 12.31854 79.70687 27186 ft 406 kts 212°
2026-04-29 06:49 12.29445 79.69174 27656 ft 409 kts 212°
2026-04-29 06:49 12.27005 79.67642 28112 ft 412 kts 212°
2026-04-29 06:49 12.24552 79.66102 28547 ft 415 kts 212°
2026-04-29 06:49 12.22086 79.64554 28975 ft 418 kts 212°
2026-04-29 06:50 12.19602 79.62995 29370 ft 421 kts 212°
2026-04-29 06:50 12.17133 79.61446 29761 ft 423 kts 211°
2026-04-29 06:50 12.14609 79.59863 29963 ft 426 kts 211°
2026-04-29 06:51 12.09483 79.56649 30002 ft 440 kts 211°
2026-04-29 06:51 12.04261 79.53376 30000 ft 440 kts 211°
2026-04-29 06:52 11.99043 79.50108 29999 ft 440 kts 211°
2026-04-29 06:52 11.93826 79.46841 30002 ft 440 kts 211°
2026-04-29 06:53 11.88661 79.43609 29999 ft 440 kts 211°
2026-04-29 06:53 11.83443 79.40344 30001 ft 440 kts 211°
2026-04-29 06:54 11.78228 79.37083 29999 ft 440 kts 211°
2026-04-29 06:54 11.73045 79.33843 30000 ft 440 kts 211°
2026-04-29 06:55 11.67821 79.30580 29999 ft 440 kts 211°
2026-04-29 06:55 11.62600 79.27319 29999 ft 440 kts 211°
2026-04-29 06:56 11.57381 79.24058 29999 ft 440 kts 212°
2026-04-29 06:56 11.52204 79.20737 30001 ft 440 kts 212°
2026-04-29 06:57 11.47033 79.17405 30001 ft 440 kts 212°
2026-04-29 06:57 11.41856 79.14083 30001 ft 440 kts 212°
2026-04-29 06:58 11.36722 79.10793 30000 ft 440 kts 212°
2026-04-29 06:58 11.31571 79.07494 30000 ft 440 kts 212°
2026-04-29 06:59 11.26385 79.04174 30001 ft 440 kts 212°
2026-04-29 06:59 11.21199 79.00855 29999 ft 440 kts 212°
2026-04-29 07:00 11.16017 78.97540 29999 ft 440 kts 212°
2026-04-29 07:00 11.10830 78.94223 29999 ft 440 kts 212°
2026-04-29 07:01 11.05900 78.91072 30001 ft 440 kts 212°
2026-04-29 07:01 11.00718 78.87762 30001 ft 440 kts 212°
2026-04-29 07:02 10.95537 78.84453 30000 ft 440 kts 212°
2026-04-29 07:02 10.90347 78.81140 30001 ft 440 kts 212°
2026-04-29 07:03 10.85249 78.77887 29999 ft 440 kts 212°
2026-04-29 07:03 10.80065 78.74581 29999 ft 440 kts 212°
2026-04-29 07:04 10.75096 78.70970 30000 ft 440 kts 221°
2026-04-29 07:04 10.70527 78.66835 30000 ft 440 kts 221°
2026-04-29 07:05 10.65945 78.62714 30001 ft 440 kts 221°
2026-04-29 07:05 10.61377 78.58608 29889 ft 437 kts 221°
2026-04-29 07:05 10.59097 78.56559 29509 ft 435 kts 221°
2026-04-29 07:06 10.56834 78.54526 29110 ft 434 kts 221°
2026-04-29 07:06 10.54579 78.52500 28719 ft 431 kts 221°
2026-04-29 07:06 10.52338 78.50487 28310 ft 428 kts 221°
2026-04-29 07:06 10.50110 78.48487 27919 ft 425 kts 221°
2026-04-29 07:07 10.47935 78.46534 27512 ft 422 kts 221°
2026-04-29 07:07 10.45706 78.44533 26977 ft 421 kts 221°
2026-04-29 07:07 10.43548 78.42596 26434 ft 417 kts 221°
2026-04-29 07:07 10.41427 78.40693 25765 ft 416 kts 221°
2026-04-29 07:08 10.39256 78.38746 24807 ft 419 kts 221°
2026-04-29 07:08 10.37064 78.36779 23506 ft 422 kts 221°
2026-04-29 07:08 10.34869 78.34755 22013 ft 428 kts 224°
2026-04-29 07:08 10.32732 78.32625 20509 ft 432 kts 225°
2026-04-29 07:09 10.30607 78.30456 19008 ft 434 kts 225°
2026-04-29 07:09 10.28479 78.28290 17513 ft 434 kts 225°
2026-04-29 07:09 10.26336 78.26127 16010 ft 432 kts 225°
2026-04-29 07:09 10.24207 78.23992 14640 ft 427 kts 224°
2026-04-29 07:10 10.22102 78.21888 13346 ft 419 kts 224°
2026-04-29 07:10 10.20041 78.19832 12063 ft 412 kts 224°
2026-04-29 07:10 10.18021 78.17817 10799 ft 404 kts 224°
2026-04-29 07:10 10.16032 78.15834 9531 ft 397 kts 224°
2026-04-29 07:11 10.14075 78.13882 8286 ft 390 kts 224°
2026-04-29 07:11 10.12158 78.11972 7073 ft 383 kts 224°
2026-04-29 07:11 10.10289 78.10109 5877 ft 377 kts 224°
2026-04-29 07:11 10.08452 78.08278 5016 ft 364 kts 224°
2026-04-29 07:12 10.06724 78.06556 4562 ft 342 kts 224°
2026-04-29 07:12 10.05084 78.04923 4311 ft 317 kts 224°
2026-04-29 07:12 10.03577 78.03421 4091 ft 295 kts 224°
2026-04-29 07:12 10.02143 78.01993 3770 ft 279 kts 224°
2026-04-29 07:13 10.00794 78.00649 3523 ft 263 kts 224°
2026-04-29 07:13 9.99538 77.99399 3446 ft 242 kts 224°
2026-04-29 07:13 9.98392 77.98257 3446 ft 221 kts 224°
2026-04-29 07:13 9.97169 77.97451 3442 ft 204 kts 196°
2026-04-29 07:14 9.95813 77.97396 3440 ft 188 kts 167°
2026-04-29 07:14 9.94581 77.97688 3449 ft 181 kts 168°
2026-04-29 07:14 9.93340 77.97968 3393 ft 183 kts 168°
2026-04-29 07:14 9.92098 77.98244 3090 ft 187 kts 168°
2026-04-29 07:15 9.90780 77.98538 2573 ft 202 kts 168°
2026-04-29 07:15 9.89388 77.98851 2242 ft 205 kts 168°
2026-04-29 07:15 9.88011 77.99095 2137 ft 195 kts 173°
2026-04-29 07:15 9.86678 77.99253 1971 ft 191 kts 174°
2026-04-29 07:16 9.85412 77.99385 1939 ft 178 kts 175°
2026-04-29 07:16 9.84232 77.99510 1966 ft 160 kts 174°
2026-04-29 07:16 9.83265 77.99921 1949 ft 154 kts 135°
2026-04-29 07:16 9.82823 78.00916 1945 ft 158 kts 91°
2026-04-29 07:17 9.82887 78.02005 1954 ft 148 kts 85°
2026-04-29 07:17 9.83008 78.03030 1730 ft 144 kts 83°
2026-04-29 07:17 9.83118 78.04025 1423 ft 143 kts 85°
2026-04-29 07:17 9.83203 78.05047 1053 ft 147 kts 86°
2026-04-29 07:18 9.83253 78.06055 823 ft 135 kts 89°
2026-04-29 07:18 9.83293 78.07043 714 ft 147 kts 86°
2026-04-29 07:18 9.83366 78.08032 531 ft 132 kts 87°
2026-04-29 07:18 9.83423 78.08913 441 ft 109 kts 86°
2026-04-29 07:19 9.83462 78.09370 440 ft 29 kts 85°
2026-04-29 07:19 9.83485 78.09686 440 ft 57 kts 84°
2026-04-29 07:19 9.83515 78.09988 432 ft 36 kts 79°
2026-04-29 07:19 9.83565 78.10116 445 ft 16 kts 97°
2026-04-29 07:20 9.83547 78.10143 438 ft 0 kts 149°
2026-04-29 07:20 9.83519 78.10130 440 ft 6 kts 242°
2026-04-29 07:20 9.83504 78.09934 440 ft 29 kts 265°
2026-04-29 07:20 9.83493 78.09790 445 ft 33 kts 265°
2026-04-29 07:21 9.83474 78.09531 444 ft 40 kts 265°
2026-04-29 07:21 9.83453 78.09233 441 ft 43 kts 264°
2026-04-29 07:21 9.83455 78.09036 431 ft 20 kts 297°
2026-04-29 07:21 9.83570 78.08873 434 ft 23 kts 306°
2026-04-29 07:22 9.83612 78.08814 439 ft 10 kts 306°
2026-04-29 07:22 9.83626 78.08804 431 ft 3 kts 341°
2026-04-29 07:22 9.83644 78.08812 443 ft 5 kts 23°
2026-04-29 07:22 9.83670 78.08848 432 ft 8 kts 77°
2026-04-29 07:23 9.83672 78.08869 443 ft 3 kts 85°
2026-04-29 07:23 9.83691 78.08883 433 ft 5 kts
2026-04-29 07:23 9.83741 78.08881 443 ft 6 kts 356°
2026-04-29 07:23 9.83755 78.08880 435 ft 0 kts 356°